Blythe, CA

3:51 PM PDT on September 26, 2016 (GMT -0700)
Blythe

Weather History for KBLH - November, 2013

Change the Weather History Date:

Sunday, November 10, 2013

  Actual Average Record
Temperature  
Mean Temperature 66 °F -  
Max Temperature 82 °F 75 °F 89 °F (1980)
Min Temperature 51 °F 50 °F 39 °F (2010)
Cooling Degree Days 2    
Growing Degree Days 16 (Base 50)    
Moisture  
Dew Point 25 °F    
Average Humidity 23    
Maximum Humidity 37    
Minimum Humidity 14    
Precipitation  
Precipitation 0.00 in - - ()
Sea Level Pressure  
Sea Level Pressure 30.05 in    
Wind  
Wind Speed 4 mph (WNW)    
Max Wind Speed 8 mph    
Max Gust Speed -    
Visibility 10 miles    
Events      
Averages and records for this station are not official NWS values.
T = Trace of Precipitation, MM = Missing Value Source: NWS Daily Summary

Daily Weather History Graph

Daily Weather History Graph

Search for Another Location

Airport or City:

Trip Planner

Search our weather history database for the weather conditions in past years. The results will help you decide how hot, cold, wet, or windy it might be!

Date:

Astronomy

Nov. 10, 2013 Rise Set
Actual Time 6:06 AM PST 4:38 PM PST
Civil Twilight 5:40 AM PST 5:05 PM PST
Nautical Twilight 5:10 AM PST 5:34 PM PST
Astronomical Twilight 4:40 AM PST 6:04 PM PST
Moon 12:28 PM PST (11/10) No Moon Set
Length of Visible Light 11h 25m
Length of Day
10h 32m
First Quarter, 56% of the Moon is Illuminated
Nov 10
First Quarter
Nov 17
Full
Nov 25
Last Quarter
Dec 2
New
Dec 9
First Quarter

Hourly Weather History & Observations

Time (PST) Temp. Dew Point Humidity Pressure Visibility Wind Dir Wind Speed Gust Speed Precip Events Conditions
12:52 AM 55.0 °F 17.1 °F 23% 30.04 in 10.0 mi NW 3.5 mph - N/A   Clear
1:52 AM 55.0 °F 18.0 °F 23% 30.04 in 10.0 mi NW 3.5 mph - N/A   Clear
2:52 AM 53.1 °F 18.0 °F 25% 30.03 in 10.0 mi NNW 4.6 mph - N/A   Clear
3:52 AM 52.0 °F 18.0 °F 26% 30.04 in 10.0 mi West 3.5 mph - N/A   Clear
4:52 AM 54.0 °F 25.0 °F 33% 30.05 in 10.0 mi South 3.5 mph - N/A   Clear
5:52 AM 53.1 °F 27.0 °F 37% 30.07 in 10.0 mi SSE 3.5 mph - N/A   Clear
6:52 AM 51.1 °F 25.0 °F 36% 30.09 in 10.0 mi ENE 3.5 mph - N/A   Clear
7:52 AM 55.9 °F 28.0 °F 34% 30.11 in 10.0 mi WSW 4.6 mph - N/A   Clear
8:52 AM 63.0 °F 24.1 °F 23% 30.11 in 10.0 mi Calm Calm - N/A   Clear
9:52 AM 64.0 °F 24.1 °F 22% 30.11 in 10.0 mi WSW 8.1 mph - N/A   Clear
10:52 AM 72.0 °F 24.1 °F 17% 30.10 in 10.0 mi SW 6.9 mph - N/A   Clear
11:52 AM 75.0 °F 25.0 °F 16% 30.06 in 10.0 mi SW 3.5 mph - N/A   Clear
12:52 PM 80.1 °F 27.0 °F 14% 30.04 in 10.0 mi NE 3.5 mph - N/A   Clear
1:52 PM 81.0 °F 28.0 °F 14% 30.02 in 10.0 mi North 3.5 mph - N/A   Clear
2:52 PM 82.9 °F 28.0 °F 14% 30.01 in 10.0 mi North 3.5 mph - N/A   Clear
3:52 PM 82.9 °F 28.0 °F 14% 30.01 in 10.0 mi Calm Calm - N/A   Clear
4:52 PM 77.0 °F 28.0 °F 17% 30.01 in 10.0 mi SSW 3.5 mph - N/A   Clear
5:52 PM 72.0 °F 30.9 °F 22% 30.02 in 10.0 mi NNW 3.5 mph - N/A   Clear
6:52 PM 66.9 °F 26.1 °F 21% 30.02 in 10.0 mi NW 8.1 mph - N/A   Clear
7:52 PM 66.9 °F 27.0 °F 22% 30.03 in 10.0 mi WNW 8.1 mph - N/A   Clear
8:52 PM 64.0 °F 26.1 °F 24% 30.04 in 10.0 mi Calm Calm - N/A   Clear
9:52 PM 64.0 °F 26.1 °F 24% 30.03 in 10.0 mi Calm Calm - N/A   Clear
10:52 PM 62.1 °F 25.0 °F 24% 30.04 in 10.0 mi WSW 6.9 mph - N/A   Clear
11:52 PM 57.9 °F 24.1 °F 27% 30.03 in 10.0 mi Calm Calm - N/A   Clear